Whidbey Island Naval Air Station, Ault Field, Airport Oak Harbor US
ICAO: KNUW
IATA: NUW
Category: Medium
Scheduled Services: No

Elevation: 47 ft
TransAlt. 18000 ft.

Airport Communications:
APP/DEP:118.2
ATIS:134.15
CLNC DEL:124.15
GND:121.75
BASE OPS:35.01
PMSV METRO:34.34
TWR:127.9

KNUW Zoom In..

If you have problems with the map follow the link
https://www.worldairports.se/pages/airport.php?
ICAO=KNUW

Runways:

(A) RW 07 length 8000 ft width 200 ft
---- / hdg 69

(B) RW 14 length 8001 ft width 200 ft
ILS 110.10 / hdg 137

(C) RW 25 length 8000 ft width 200 ft
---- / hdg 249

(D) RW 32 length 8001 ft width 200 ft
---- / hdg 317

Location; KNUW
Day. 19 / Time. 13.56 Zulu
* Altimeter: 30.20
* Temperature: 02° c. 35.6°f.
* Wind from: 110° Speed 03 kn.
Dewpoint: -01° c.
Visibility: 7 Statute Miles.
Clouds: Few 500 ft.
Conditions: Fog Patches.

KNUW 191356Z 11003KT 7SM BCFG FEW005 02/M01 A3020 RMK AO2 SLP225 T00171006 VISNO $


Wind From 110°
Speed 03 kn.

 
 
jpsmedia.com for Web Design worldairports.se 2018   terms of use